TimeEST,TemperatureF,Dew PointF,Humidity,Sea Level PressureIn,VisibilityMPH,Wind Direction,Wind SpeedMPH,Gust SpeedMPH,PrecipitationIn,Events,Conditions,WindDirDegrees,DateUTC
12:28 AM,33.8,33.8,100,30.19,6.0,South,6.9,-,0.08,Rain,Rain,170,2013-12-09 05:28:00
12:54 AM,34.0,33.1,96,30.21,7.0,SE,8.1,-,0.15,Rain,Rain,140,2013-12-09 05:54:00
1:17 AM,33.8,33.8,100,30.17,8.0,SSE,8.1,-,0.04,Rain,Light Rain,160,2013-12-09 06:17:00
1:54 AM,35.1,34.0,96,30.18,10.0,South,9.2,-,0.09,Rain,Light Rain,180,2013-12-09 06:54:00
2:54 AM,37.0,36.0,96,30.15,10.0,SSE,5.8,-,0.05,,Overcast,160,2013-12-09 07:54:00
3:19 AM,37.4,37.4,100,30.14,10.0,SE,5.8,-,N/A,,Overcast,140,2013-12-09 08:19:00
3:54 AM,41.0,39.0,93,30.15,3.0,SSE,6.9,-,0.02,Rain,Rain,150,2013-12-09 08:54:00
4:54 AM,44.1,42.1,93,30.12,10.0,Variable,5.8,-,0.03,Rain,Light Rain,0,2013-12-09 09:54:00
5:07 AM,44.6,42.8,93,30.09,10.0,SE,6.9,-,0.00,Rain,Light Rain,140,2013-12-09 10:07:00
5:26 AM,44.6,42.8,93,30.08,10.0,SSE,8.1,-,0.01,Rain,Light Rain,150,2013-12-09 10:26:00
5:39 AM,44.6,42.8,93,30.09,10.0,South,5.8,-,0.01,Rain,Light Rain,170,2013-12-09 10:39:00
5:54 AM,45.0,43.0,93,30.10,10.0,SSE,6.9,-,0.01,Rain,Light Rain,150,2013-12-09 10:54:00
6:03 AM,44.6,42.8,93,30.08,10.0,SSE,6.9,-,0.01,Rain,Light Rain,150,2013-12-09 11:03:00
6:54 AM,45.0,44.1,97,30.10,6.0,SE,8.1,-,0.08,Rain,Light Rain,140,2013-12-09 11:54:00
7:24 AM,46.4,44.6,93,30.09,8.0,SSE,9.2,-,0.10,Rain,Light Rain,150,2013-12-09 12:24:00
7:54 AM,50.0,46.9,89,30.10,10.0,South,12.7,20.7,0.10,Rain,Light Rain,190,2013-12-09 12:54:00
8:54 AM,48.9,48.0,97,30.11,10.0,South,9.2,-,0.01,,Overcast,190,2013-12-09 13:54:00
9:25 AM,50.0,48.2,94,30.11,10.0,South,4.6,-,0.00,,Overcast,170,2013-12-09 14:25:00
9:54 AM,50.0,48.0,93,30.12,9.0,SSE,3.5,-,0.00,Rain,Light Rain,150,2013-12-09 14:54:00
10:18 AM,50.0,48.2,94,30.11,10.0,Calm,Calm,-,0.00,,Overcast,0,2013-12-09 15:18:00
10:54 AM,52.0,48.9,89,30.11,10.0,Variable,3.5,-,0.01,,Overcast,0,2013-12-09 15:54:00
11:34 AM,51.8,51.8,100,30.10,10.0,South,4.6,-,0.00,Rain,Light Rain,190,2013-12-09 16:34:00
11:54 AM,53.1,51.1,93,30.09,10.0,Calm,Calm,-,0.00,Rain,Light Rain,0,2013-12-09 16:54:00
12:09 PM,51.8,48.2,88,30.09,10.0,NNW,8.1,-,0.00,,Overcast,340,2013-12-09 17:09:00
12:18 PM,51.8,50.0,94,30.08,10.0,NNW,6.9,-,0.00,,Overcast,340,2013-12-09 17:18:00
12:54 PM,50.0,48.9,96,30.09,3.0,NNW,13.8,-,0.00,,Overcast,330,2013-12-09 17:54:00
1:28 PM,50.0,48.2,94,30.06,3.0,NNW,12.7,-,N/A,,Overcast,340,2013-12-09 18:28:00
1:40 PM,50.0,48.2,94,30.07,3.0,NNW,12.7,-,N/A,,Overcast,340,2013-12-09 18:40:00
1:50 PM,50.0,48.2,94,30.06,3.0,NNW,12.7,-,N/A,,Overcast,340,2013-12-09 18:50:00
1:54 PM,50.0,48.0,93,30.07,3.0,NNW,12.7,-,N/A,,Overcast,330,2013-12-09 18:54:00
2:54 PM,51.1,48.0,89,30.06,10.0,NNW,13.8,19.6,N/A,,Mostly Cloudy,340,2013-12-09 19:54:00
3:21 PM,51.8,48.2,88,30.06,10.0,NW,6.9,17.3,N/A,,Overcast,310,2013-12-09 20:21:00
3:54 PM,50.0,46.9,89,30.07,10.0,NNW,11.5,-,N/A,,Overcast,340,2013-12-09 20:54:00
4:38 PM,50.0,46.4,87,30.08,10.0,NNW,11.5,-,N/A,,Overcast,340,2013-12-09 21:38:00
4:54 PM,50.0,46.0,86,30.07,10.0,North,8.1,-,N/A,,Mostly Cloudy,360,2013-12-09 21:54:00
5:54 PM,48.9,46.0,90,30.08,10.0,North,6.9,-,N/A,,Partly Cloudy,360,2013-12-09 22:54:00
6:49 PM,48.2,46.4,93,30.11,10.0,North,9.2,-,N/A,,Mostly Cloudy,350,2013-12-09 23:49:00
6:54 PM,48.0,46.0,93,30.09,10.0,NNW,10.4,-,N/A,,Mostly Cloudy,340,2013-12-09 23:54:00
7:54 PM,48.0,44.1,86,30.10,10.0,NNW,11.5,-,N/A,,Mostly Cloudy,340,2013-12-10 00:54:00
8:54 PM,48.0,43.0,83,30.09,10.0,NNW,9.2,-,N/A,,Overcast,330,2013-12-10 01:54:00
9:35 PM,46.4,42.8,87,30.09,10.0,NNW,6.9,-,N/A,,Mostly Cloudy,330,2013-12-10 02:35:00
9:54 PM,46.9,43.0,86,30.07,10.0,NNW,4.6,-,N/A,,Overcast,340,2013-12-10 02:54:00
10:54 PM,46.9,43.0,86,30.04,10.0,North,3.5,-,N/A,,Overcast,360,2013-12-10 03:54:00
11:54 PM,46.0,43.0,89,30.01,10.0,Calm,Calm,-,N/A,,Overcast,0,2013-12-10 04:54:00